When you browse on this site, cookies collect data to enhance your experience and personalize the content and advertising you see.
Visit our Privacy Policy to learn more. By continuing to use the site, you agree to this use of cookies and data.
  • In United Kingdom
  • List of Countries
  • For 7 days
  • Water Temperature
  • Satellite Maps
  • Weather Map
  • Weather Widgets
  • user-avatar
    Login

    Hourly Weather Uz

    Today, 20 March, Wednesday

    Time Temperature Precipitation Wind Pressure Humidity
    00:00 +11°C° 0 mm 1 mps 699 mmHg 62%
    01:00 +11°C° 0 mm 1 mps 699 mmHg 63%
    02:00 +10°C° 0.1 mm 1 mps 699 mmHg 66%
    03:00 +9°C° 0.1 mm 0 mps 699 mmHg 70%
    04:00 +8°C° 0 mm 0 mps 698 mmHg 74%
    05:00 +9°C° 0.2 mm 0 mps 699 mmHg 72%
    06:00 +9°C° 0.2 mm 0 mps 699 mmHg 70%
    07:00 +9°C° 0.2 mm 0 mps 699 mmHg 69%
    08:00 +11°C° 0.3 mm 1 mps 700 mmHg 67%
    09:00 +12°C° 0.3 mm 1 mps 700 mmHg 65%
    10:00 +10°C° 0 mm 2 mps 700 mmHg 67%
    11:00 +12°C° 0.5 mm 2 mps 700 mmHg 66%
    12:00 +12°C° 0.5 mm 2 mps 700 mmHg 66%
    13:00 +13°C° 0.5 mm 2 mps 700 mmHg 65%
    14:00 +12°C° 0.4 mm 2 mps 700 mmHg 66%
    15:00 +12°C° 0.4 mm 1 mps 700 mmHg 67%
    16:00 +12°C° 0 mm 1 mps 699 mmHg 71%
    17:00 +11°C° 0.3 mm 1 mps 700 mmHg 73%
    18:00 +11°C° 0.3 mm 1 mps 700 mmHg 75%
    19:00 +11°C° 0.3 mm 1 mps 700 mmHg 77%
    20:00 +11°C° 0.1 mm 1 mps 700 mmHg 77%
    21:00 +9°C° 0.1 mm 0 mps 701 mmHg 77%
    22:00 +9°C° 0.1 mm 0 mps 701 mmHg 77%
    23:00 +10°C° 0 mm 1 mps 701 mmHg 76%

    Tomorrow, 21 March, Thursday

    Time Temperature Precipitation Wind Pressure Humidity
    00:00 +9°C° 0 mm 1 mps 701 mmHg 76%
    01:00 +9°C° 0 mm 1 mps 701 mmHg 75%
    02:00 +9°C° 0.1 mm 1 mps 701 mmHg 74%
    03:00 +9°C° 0.1 mm 1 mps 701 mmHg 72%
    04:00 +9°C° 0.1 mm 1 mps 701 mmHg 71%
    05:00 +8°C° 0.1 mm 2 mps 701 mmHg 69%
    06:00 +9°C° 0.1 mm 2 mps 702 mmHg 66%
    07:00 +10°C° 0.1 mm 2 mps 702 mmHg 64%
    08:00 +12°C° 0.1 mm 1 mps 702 mmHg 60%
    09:00 +13°C° 0.1 mm 1 mps 702 mmHg 56%
    10:00 +13°C° 0.1 mm 0 mps 703 mmHg 52%
    11:00 +13°C° 0.2 mm 0 mps 702 mmHg 52%
    12:00 +14°C° 0.2 mm 0 mps 702 mmHg 51%
    13:00 +14°C° 0.2 mm 0 mps 702 mmHg 50%
    14:00 +14°C° 0.1 mm 0 mps 702 mmHg 51%
    15:00 +15°C° 0.1 mm 1 mps 701 mmHg 51%
    16:00 +15°C° 0.1 mm 1 mps 701 mmHg 51%
    17:00 +14°C° 0 mm 1 mps 701 mmHg 52%
    18:00 +13°C° 0 mm 1 mps 701 mmHg 54%
    19:00 +12°C° 0 mm 2 mps 701 mmHg 55%
    20:00 +12°C° 0 mm 2 mps 701 mmHg 55%
    21:00 +12°C° 0 mm 2 mps 701 mmHg 54%
    22:00 +10°C° 0 mm 3 mps 701 mmHg 53%
    23:00 +10°C° 0 mm 3 mps 701 mmHg 52%

    Day after tomorrow, 22 March, Friday

    Time Temperature Precipitation Wind Pressure Humidity
    00:00 +10°C° 0 mm 3 mps 701 mmHg 51%
    01:00 +10°C° 0 mm 3 mps 700 mmHg 50%
    02:00 +10°C° 0 mm 2 mps 700 mmHg 50%
    03:00 +10°C° 0 mm 2 mps 700 mmHg 50%
    04:00 +10°C° 0 mm 2 mps 700 mmHg 50%
    05:00 +10°C° 0.2 mm 2 mps 700 mmHg 52%
    06:00 +12°C° 0.2 mm 2 mps 700 mmHg 55%
    07:00 +12°C° 0.2 mm 2 mps 701 mmHg 57%
    08:00 +13°C° 0.1 mm 2 mps 701 mmHg 53%
    09:00 +15°C° 0.1 mm 2 mps 701 mmHg 49%
    10:00 +16°C° 0.1 mm 2 mps 702 mmHg 45%
    11:00 +17°C° 0 mm 2 mps 701 mmHg 43%
    12:00 +18°C° 0 mm 2 mps 701 mmHg 42%
    13:00 +19°C° 0 mm 2 mps 701 mmHg 40%
    14:00 +18°C° 0 mm 2 mps 700 mmHg 41%
    15:00 +18°C° 0 mm 2 mps 700 mmHg 43%
    16:00 +19°C° 0 mm 1 mps 699 mmHg 44%
    17:00 +16°C° 0 mm 1 mps 699 mmHg 47%
    18:00 +15°C° 0 mm 2 mps 699 mmHg 51%
    19:00 +14°C° 0 mm 2 mps 699 mmHg 54%
    20:00 +14°C° 0.1 mm 2 mps 699 mmHg 55%
    21:00 +14°C° 0.1 mm 2 mps 699 mmHg 56%
    22:00 +13°C° 0.1 mm 2 mps 699 mmHg 57%
    23:00 +13°C° 0.1 mm 2 mps 699 mmHg 57%

    23 March, Saturday

    Time Temperature Precipitation Wind Pressure Humidity
    00:00 +13°C° 0.1 mm 2 mps 699 mmHg 58%
    01:00 +13°C° 0.1 mm 2 mps 698 mmHg 58%
    02:00 +13°C° 0.1 mm 2 mps 698 mmHg 59%
    03:00 +13°C° 0.1 mm 1 mps 699 mmHg 59%
    04:00 +13°C° 0.1 mm 1 mps 699 mmHg 59%
    05:00 +13°C° 0.2 mm 1 mps 699 mmHg 60%
    06:00 +13°C° 0.2 mm 1 mps 699 mmHg 62%
    07:00 +13°C° 0.2 mm 1 mps 700 mmHg 63%
    08:00 +14°C° 0.2 mm 2 mps 700 mmHg 62%
    09:00 +13°C° 0.2 mm 3 mps 701 mmHg 60%
    10:00 +14°C° 0.2 mm 4 mps 702 mmHg 59%
    11:00 +14°C° 0.9 mm 4 mps 701 mmHg 63%
    12:00 +13°C° 0.9 mm 5 mps 701 mmHg 68%
    13:00 +11°C° 0.9 mm 6 mps 701 mmHg 73%
    14:00 +12°C° 0.9 mm 5 mps 701 mmHg 73%
    15:00 +12°C° 0.9 mm 4 mps 701 mmHg 73%
    16:00 +12°C° 0.9 mm 4 mps 701 mmHg 74%
    17:00 +11°C° 0.1 mm 3 mps 701 mmHg 76%
    18:00 +10°C° 0.1 mm 2 mps 701 mmHg 79%
    19:00 +11°C° 0.1 mm 1 mps 701 mmHg 82%
    20:00 +10°C° 0 mm 1 mps 701 mmHg 80%
    21:00 +10°C° 0 mm 1 mps 701 mmHg 79%
    22:00 +10°C° 0 mm 1 mps 701 mmHg 77%
    23:00 +9°C° 0 mm 2 mps 701 mmHg 74%

    24 March, Sunday

    Time Temperature Precipitation Wind Pressure Humidity
    00:00 +8°C° 0 mm 2 mps 701 mmHg 71%
    01:00 +8°C° 0 mm 2 mps 701 mmHg 68%
    02:00 +8°C° 0 mm 2 mps 701 mmHg 67%
    03:00 +8°C° 0 mm 2 mps 701 mmHg 65%
    04:00 +8°C° 0 mm 2 mps 701 mmHg 63%
    05:00 +9°C° 0 mm 2 mps 701 mmHg 62%
    06:00 +10°C° 0 mm 2 mps 701 mmHg 60%
    07:00 +12°C° 0 mm 2 mps 701 mmHg 58%
    08:00 +13°C° 0 mm 2 mps 701 mmHg 54%
    09:00 +15°C° 0 mm 1 mps 701 mmHg 49%
    10:00 +18°C° 0 mm 1 mps 701 mmHg 45%
    11:00 +19°C° 0 mm 1 mps 701 mmHg 42%
    12:00 +18°C° 0 mm 2 mps 700 mmHg 40%
    13:00 +19°C° 0 mm 2 mps 700 mmHg 38%
    14:00 +19°C° 0 mm 2 mps 700 mmHg 37%
    15:00 +19°C° 0 mm 2 mps 699 mmHg 37%
    16:00 +19°C° 0 mm 2 mps 699 mmHg 37%
    17:00 +18°C° 0 mm 2 mps 699 mmHg 39%
    18:00 +16°C° 0 mm 3 mps 699 mmHg 41%
    19:00 +14°C° 0 mm 4 mps 698 mmHg 44%
    20:00 +13°C° 0 mm 4 mps 698 mmHg 42%
    21:00 +13°C° 0 mm 4 mps 698 mmHg 41%
    22:00 +13°C° 0 mm 5 mps 698 mmHg 39%
    23:00 +13°C° 0 mm 5 mps 698 mmHg 39%

    25 March, Monday

    Time Temperature Precipitation Wind Pressure Humidity
    00:00 +13°C° 0 mm 5 mps 698 mmHg 39%
    01:00 +14°C° 0 mm 5 mps 697 mmHg 39%
    02:00 +13°C° 0 mm 5 mps 697 mmHg 39%
    03:00 +13°C° 0 mm 5 mps 697 mmHg 39%
    04:00 +13°C° 0 mm 5 mps 696 mmHg 39%
    05:00 +14°C° 0 mm 5 mps 696 mmHg 39%
    06:00 +14°C° 0 mm 5 mps 696 mmHg 40%
    07:00 +15°C° 0 mm 4 mps 696 mmHg 40%
    08:00 +18°C° 0 mm 4 mps 696 mmHg 37%
    09:00 +21°C° 0 mm 4 mps 696 mmHg 34%
    10:00 +23°C° 0 mm 4 mps 696 mmHg 30%
    11:00 +25°C° 0 mm 4 mps 695 mmHg 30%
    12:00 +25°C° 0 mm 3 mps 695 mmHg 29%
    13:00 +25°C° 0 mm 3 mps 694 mmHg 28%
    14:00 +24°C° 0 mm 3 mps 694 mmHg 31%
    15:00 +22°C° 0 mm 3 mps 695 mmHg 34%
    16:00 +21°C° 0 mm 3 mps 695 mmHg 36%
    17:00 +20°C° 0.1 mm 3 mps 695 mmHg 42%
    18:00 +18°C° 0.1 mm 4 mps 696 mmHg 47%
    19:00 +15°C° 0.1 mm 4 mps 697 mmHg 52%
    20:00 +14°C° 1.7 mm 4 mps 697 mmHg 61%
    21:00 +13°C° 1.7 mm 4 mps 698 mmHg 70%
    22:00 +13°C° 1.7 mm 4 mps 698 mmHg 79%
    23:00 +12°C° 4.3 mm 4 mps 699 mmHg 83%
    Show more